Powrót do katalogu

SL-16 DEB

AktywnyLEO
NORAD 22221·DEBRIS·🇷🇺 Russia

Wystrzelony Nov 17, 1992 z Baikonur Cosmodrome

Loading…

Następne Przeloty (najbliższe 24 godziny)

TLE

ŚwieżeSource: Space-Track

Epoka: Sep 14, 2026, 10:27 UTC

1 22221U 92076C   26257.43601531  .00000013  00000-0  49294-4 0  9994
2 22221  71.0436  56.1827 0182877   9.5300  19.8091 13.77708016699531

Śledź SL-16 DEB w czasie rzeczywistym z AllMySat

Download on the App Store